Content
SEND FEEDBACK

Daily
Averages
Monthly
Summary
United States of America

HEATH, MASSACHUSETTS


Home > North America > United States > Massachusetts
Elevation: 1450 feet     Latitude: 42 40N     Longitude: 072 49W

WEATHER
 
SELECT A DAY
Number of Records: 199,815;   Date Range: 10/28/95 - 10/21/14
 
SHARE

PRINT THIS DATA

[ ← Previous Day ]
WEATHER ALMANAC - FEBRUARY 8, 2014
[ Next Day → ]
[ °C ]   °F
Weather ElementAverageHighLow
Temperature15.3 °F21.9 °F (2:52 pm)8.1 °F (6:52 am)
Dewpoint-1 °F3 °F (6:52 pm)-5.1 °F (5:52 am)
Humidity49 %62 % (9:52 pm)38 % (2:52 pm)
Barometer30.25 in30.34 in (7:52 am)30.17 in (10:52 pm)
Wind Speed5.7 mph13.8 mph (1:52 am)
Weather ElementAverage
Visibility10 mi
Wind DirectionSSE (152.2 °)

Weather ElementTotal
Precipitation---
Heating Degree Days50 (Base 65)
Averaged from 23 records on February 8, 2014
WEATHER CONDITIONS BREAKOUT
WIND DIRECTION BREAKOUT
WEATHER BY HOUR - FEBRUARY 8, 2014
[ °C ]   °F
Local TimeTemperatureDewpointHumidityBarometerVisibilityWind DirectionWind SpeedGust SpeedPrecipitationEventsConditions
1:52 AM12.9 °F-2.0 °F51 %30.26 in10.0 miWest (270°)13.8 mphClear
2:52 AM12.0 °F-2.9 °F51 %30.27 in10.0 miWest (270°)13.8 mphClear
3:52 AM10.9 °F-4.0 °F51 %30.29 in10.0 miWest (270°)11.5 mphClear
4:52 AM10.0 °F-4.0 °F53 %30.31 in10.0 miWest (270°)10.4 mphClear
5:52 AM9.0 °F-5.1 °F53 %30.33 in10.0 miVariable6.9 mphClear
6:52 AM8.1 °F-5.1 °F55 %30.33 in10.0 miSSW (210°)5.8 mphClear
7:52 AM9.0 °F-5.1 °F53 %30.34 in10.0 miWest (280°)3.5 mphClear
8:52 AM12.0 °F-4.0 °F49 %30.34 in10.0 miVariable4.6 mphClear
9:52 AM15.1 °F-2.9 °F45 %30.33 in10.0 miVariable4.6 mphClear
10:52 AM16.0 °F-2.0 °F45 %30.31 in10.0 miVariable4.6 mphClear
11:52 AM19.0 °F-0.9 °F42 %30.27 in10.0 miVariable6.9 mphClear
12:52 PM21.0 °F0.0 °F40 %30.22 in10.0 miWNW (290°)5.8 mphClear
1:52 PM19.9 °F0.0 °F42 %30.22 in10.0 miWest (280°)5.8 mphClear
2:52 PM21.9 °F0.0 °F38 %30.21 in10.0 miVariable4.6 mphClear
3:52 PM21.0 °F1.0 °F42 %30.21 in10.0 miVariable5.8 mphPartly Cloudy
4:52 PM21.0 °F-0.9 °F38 %30.22 in10.0 miCalmOvercast
5:52 PM19.9 °F0.0 °F42 %30.22 in10.0 miCalmOvercast
6:52 PM18.0 °F3.0 °F52 %30.20 in10.0 miWSW (250°)3.5 mphOvercast
7:52 PM16.0 °F3.0 °F57 %30.19 in10.0 miWest (270°)3.5 mphScattered Clouds
8:52 PM12.0 °F1.0 °F61 %30.19 in10.0 miCalmClear
9:52 PM14.0 °F3.0 °F62 %30.19 in10.0 miWest (280°)4.6 mphOvercast
10:52 PM17.1 °F1.9 °F52 %30.17 in10.0 miWest (270°)4.6 mphOvercast
11:52 PM17.1 °F3.0 °F54 %30.17 in10.0 miWNW (290°)6.9 mphOvercast
Hourly data recorded from KAQW, located miles away from Heath, Massachusetts







STORIES FROM OUR PARTNERS